| time (UTC) | temp F | wind direction | speed MPH | gust MPH | rain 1hr in | rain 24hr in | rain mn in | humidity % | barometer mb |
| 20260505230603 | 74 | 200 | 7.0 | 16.0 | 0.00 | 7.60 | 7.60 | 52 | 1004.8 |
| 20260505230004 | 74 | 199 | 7.0 | 17.0 | 0.00 | 7.60 | 7.60 | 51 | 1004.8 |
| 20260505225404 | 75 | 194 | 7.0 | 16.0 | 0.00 | 7.60 | 7.60 | 50 | 1004.6 |
| 20260505224803 | 75 | 196 | 8.0 | 20.0 | 0.00 | 7.60 | 7.60 | 50 | 1004.5 |
| 20260505224203 | 75 | 195 | 10.0 | 20.0 | 0.00 | 7.60 | 7.60 | 50 | 1004.6 |
| 20260505223604 | 74 | 185 | 8.0 | 19.0 | 0.00 | 7.60 | 7.60 | 52 | 1004.5 |
| 20260505223003 | 74 | 179 | 7.0 | 17.0 | 0.00 | 7.60 | 7.60 | 53 | 1004.3 |
| 20260505222403 | 73 | 189 | 7.0 | 17.0 | 0.00 | 7.60 | 7.60 | 53 | 1004.2 |
| 20260505221804 | 73 | 190 | 8.0 | 19.0 | 0.00 | 7.60 | 7.60 | 54 | 1004.1 |
| 20260505221203 | 73 | 189 | 8.0 | 19.0 | 0.00 | 7.60 | 7.60 | 54 | 1004.1 |
| 20260505220603 | 73 | 193 | 7.0 | 17.0 | 0.00 | 7.60 | 7.60 | 55 | 1004.1 |
| 20260505220003 | 72 | 189 | 7.0 | 17.0 | 0.00 | 7.60 | 7.60 | 56 | 1004.1 |
| 20260505215404 | 72 | 189 | 8.0 | 18.0 | 0.00 | 7.60 | 7.60 | 55 | 1004.1 |
| 20260505214804 | 72 | 191 | 8.0 | 18.0 | 0.00 | 7.60 | 7.60 | 55 | 1003.8 |
| 20260505214203 | 73 | 195 | 7.0 | 16.0 | 0.00 | 7.60 | 7.60 | 55 | 1003.9 |
| 20260505213604 | 72 | 183 | 5.0 | 16.0 | 0.00 | 7.60 | 7.60 | 56 | 1003.8 |
| 20260505213004 | 72 | 169 | 5.0 | 15.0 | 0.00 | 7.60 | 7.60 | 56 | 1003.8 |
| 20260505212403 | 72 | 171 | 6.0 | 15.0 | 0.00 | 7.60 | 7.60 | 56 | 1003.7 |
| 20260505211803 | 71 | 181 | 5.0 | 13.0 | 0.00 | 7.60 | 7.60 | 57 | 1003.6 |
| 20260505211204 | 71 | 165 | 6.0 | 21.0 | 0.00 | 7.60 | 7.60 | 57 | 1003.5 |
| 20260505210604 | 72 | 175 | 7.0 | 21.0 | 0.00 | 7.60 | 7.60 | 55 | 1003.6 |
| 20260505210003 | 72 | 179 | 7.0 | 20.0 | 0.00 | 7.60 | 7.60 | 56 | 1003.5 |
| 20260505205403 | 72 | 169 | 7.0 | 13.0 | 0.00 | 7.60 | 7.60 | 55 | 1003.4 |
| 20260505204804 | 73 | 162 | 7.0 | 17.0 | 0.00 | 7.60 | 7.60 | 53 | 1003.3 |
| 20260505204203 | 73 | 169 | 7.0 | 18.0 | 0.00 | 7.60 | 7.60 | 55 | 1003.4 |
| 20260505203603 | 73 | 179 | 6.0 | 14.0 | 7.60 | 7.60 | 7.60 | 55 | 1003.3 |
| 20260505203003 | 72 | 168 | 6.0 | 14.0 | 7.60 | 7.60 | 7.60 | 54 | 1003.5 |
| 20260505202404 | 73 | 169 | 6.0 | 14.0 | 7.60 | 7.60 | 7.60 | 53 | 1003.6 |
| 20260505201804 | 73 | 175 | 5.0 | 15.0 | 7.60 | 7.60 | 7.60 | 53 | 1003.6 |
| 20260505201203 | 73 | 163 | 7.0 | 17.0 | 7.60 | 7.60 | 7.60 | 53 | 1003.6 |
| 20260505200603 | 74 | 162 | 7.0 | 15.0 | 7.60 | 7.60 | 7.60 | 52 | 1003.5 |
| 20260505200004 | 74 | 162 | 7.0 | 17.0 | 7.60 | 7.60 | 7.60 | 52 | 1003.7 |
| 20260505195403 | 74 | 164 | 8.0 | 17.0 | 7.60 | 7.60 | 7.60 | 52 | 1003.6 |
| 20260505194804 | 75 | 161 | 7.0 | 15.0 | 7.60 | 7.60 | 7.60 | 52 | 1003.6 |